Wind_Speed
21 23 28 38 46 46 42 40 45 51 49 47 47 48 43 36 34 36 35 35 36 39 42 44 46 45 42 42 39 34 32 31 35 43 40 31 28 28 26 24 23 24 25 24 22 22 20 17 15 15 13 9 8 8 11 16 20 22 22 23 23 24 25
17 20 23 31 41 45 42 35 33 38 44 47 48 47 45 43 44 41 35 30 26 26 30 32 35 41 43 44 43 36 31 28 29 35 38 33 29 27 24 23 24 25 26 26 24 23 21 18 16 16 16 12 9 8 9 13 18 21 22 23 24 25 25
18 22 25 26 33 42 49 43 30 25 31 38 43 48 48 47 45 40 36 33 27 22 25 26 24 28 34 39 42 40 37 37 34 29 33 35 34 32 28 26 26 26 27 26 24 23 23 20 17 17 18 15 11 9 8 10 15 20 24 25 25 26 26
33 29 25 26 28 31 39 46 42 34 31 28 28 37 46 49 46 38 34 36 33 27 23 20 22 26 27 27 34 41 41 44 41 31 32 38 38 35 33 31 31 30 27 25 23 23 23 22 19 17 19 17 12 11 9 10 13 17 22 24 25 25 26
42 39 35 34 32 26 24 34 44 42 38 35 30 28 32 41 48 43 34 30 32 29 22 20 23 26 28 27 27 36 40 43 39 31 29 36 38 37 35 32 32 32 29 26 25 24 24 24 22 18 19 20 15 12 11 9 11 13 17 21 23 24 26
41 42 40 37 35 31 24 24 33 40 39 36 34 32 26 28 39 45 42 32 22 17 18 22 22 20 23 26 23 28 35 35 33 31 30 33 34 36 38 35 31 29 28 27 28 27 26 25 23 18 18 21 19 13 12 10 10 11 14 18 21 23 25
43 43 42 39 38 39 37 30 27 32 35 32 29 30 26 21 27 35 41 41 30 19 15 15 16 19 23 24 21 23 28 28 27 28 31 31 30 34 39 39 35 28 26 28 29 27 26 25 23 20 18 21 22 17 12 11 10 10 12 15 19 22 24
47 45 42 41 41 42 43 42 36 32 33 34 33 29 27 26 26 26 31 40 41 32 22 17 17 20 20 20 21 20 21 24 26 26 29 32 31 34 37 38 36 31 28 29 29 28 27 25 24 23 21 22 23 19 14 11 10 10 12 14 17 21 23
50 48 44 43 43 42 40 42 43 38 30 34 40 36 33 33 31 26 26 33 37 36 30 24 21 19 17 16 17 16 12 16 21 24 28 30 31 34 37 39 38 34 32 30 30 30 28 26 26 26 25 24 22 19 18 14 11 11 12 13 15 18 21
52 50 47 45 45 46 45 43 45 41 31 34 45 43 37 37 35 34 30 25 25 32 34 29 21 16 17 19 13 11 10 12 16 23 28 30 31 33 36 40 41 37 33 29 29 30 30 29 28 27 27 26 22 21 21 17 13 12 12 12 13 16 19
54 52 51 50 49 50 50 47 46 47 43 45 52 49 42 40 38 40 39 28 21 27 35 36 30 23 21 23 22 17 16 18 21 26 30 30 31 33 35 38 40 39 35 32 31 31 31 31 30 28 28 28 26 24 25 22 17 14 14 13 13 14 16
56 55 54 53 54 53 53 50 48 50 51 52 56 56 50 46 41 41 43 37 31 31 34 37 39 38 31 27 29 29 26 28 30 30 31 30 28 29 33 35 36 37 37 34 33 32 32 32 31 30 29 30 29 29 29 26 22 18 17 15 14 14 15
56 57 56 54 54 55 54 53 51 49 49 51 56 60 58 52 47 45 46 42 39 39 40 38 36 40 39 35 39 40 35 34 33 27 28 32 32 32 34 36 35 35 36 37 35 34 34 34 33 32 32 32 32 32 31 29 25 22 20 18 16 16 15
56 58 59 58 56 55 55 55 54 52 50 51 57 63 63 59 53 50 48 42 39 41 48 48 41 39 40 41 44 44 38 38 37 29 27 33 38 40 42 42 41 39 38 38 37 35 36 35 35 35 35 34 34 34 33 30 27 25 23 20 18 17 16
53 56 59 60 59 58 58 58 57 54 51 52 57 62 63 60 58 55 50 44 41 44 50 53 50 46 45 44 43 40 36 37 37 32 30 33 38 41 41 41 40 40 41 39 37 38 40 41 40 39 38 38 37 36 34 31 29 27 25 22 20 18 17
46 50 53 57 60 61 62 62 61 57 52 50 53 59 62 60 58 56 52 47 45 48 53 54 53 52 51 50 48 42 38 36 35 35 35 36 39 40 38 38 37 39 41 41 40 40 43 46 46 44 43 41 40 37 34 32 30 29 27 24 22 20 19
37 41 46 52 58 61 63 62 60 58 55 52 51 56 60 60 58 57 55 50 47 51 56 56 54 54 54 52 50 48 45 43 40 39 40 40 41 41 40 39 38 39 42 43 43 41 41 42 43 41 41 41 40 37 34 32 32 31 29 26 24 22 21
32 34 41 48 55 62 64 62 60 59 59 56 53 55 59 60 59 59 58 54 49 52 59 59 55 54 53 49 47 48 49 49 47 45 44 43 43 42 43 42 41 41 44 46 45 44 42 41 40 40 41 41 39 38 35 34 34 33 31 28 26 24 22
29 32 38 44 51 59 62 62 62 62 62 61 57 55 58 59 60 63 63 58 51 52 60 64 58 55 54 50 46 46 46 47 48 47 46 46 45 44 44 45 44 45 46 46 45 44 43 43 43 43 43 41 40 39 38 36 36 34 33 30 27 25 23
27 31 37 42 45 48 53 59 63 63 62 63 59 54 56 61 65 67 68 63 56 54 63 68 63 58 57 54 49 47 46 45 45 45 45 46 47 46 44 45 47 48 48 48 46 44 43 44 43 43 43 42 41 40 38 35 34 34 34 31 28 25 23
27 28 34 40 40 40 45 54 60 63 64 64 61 56 57 64 68 68 68 69 65 63 68 71 65 58 58 57 51 49 48 47 45 45 45 46 46 46 44 45 47 48 47 47 46 44 44 44 44 43 43 42 39 37 35 33 31 32 33 31 27 25 23
28 28 31 36 39 39 42 47 52 59 64 65 64 60 59 64 68 68 68 71 72 70 71 72 65 58 57 59 56 51 50 48 46 46 46 45 45 45 45 46 47 47 46 45 45 44 44 44 45 43 42 41 39 37 36 32 30 30 30 29 26 24 22
30 30 29 32 38 41 41 42 46 52 57 62 64 62 60 62 67 69 70 71 71 69 69 71 69 62 60 61 58 53 50 46 46 48 47 45 45 45 45 46 47 47 46 45 45 45 43 44 44 42 41 42 41 38 35 32 30 30 30 28 26 23 22
31 31 29 29 34 40 42 41 42 45 50 56 61 62 60 61 64 68 70 71 71 69 66 69 71 68 65 63 57 53 50 46 45 47 46 44 44 44 45 46 47 47 47 45 45 45 44 43 43 42 42 42 41 38 35 33 33 32 31 28 25 23 23
31 30 30 28 32 39 44 43 41 41 43 50 56 59 58 59 63 67 69 70 72 70 65 67 71 69 67 65 60 55 50 45 44 45 45 44 44 44 46 47 47 48 48 47 46 46 44 43 43 43 43 43 41 38 36 36 35 33 31 30 27 25 25
31 29 29 29 32 38 43 45 43 40 40 45 54 58 57 58 63 67 68 71 74 71 65 66 70 69 66 64 63 60 54 47 44 43 42 43 44 44 45 47 47 48 48 48 48 46 45 44 44 45 46 45 42 40 39 36 34 33 33 33 30 27 26
31 31 30 32 33 35 39 43 45 43 40 42 50 56 57 57 62 66 67 70 73 70 65 67 70 70 67 64 63 63 61 56 50 46 44 46 46 45 46 46 47 48 48 48 49 48 47 47 46 47 47 46 45 43 40 36 34 35 36 35 32 28 27
29 31 32 33 34 34 36 40 44 45 43 42 46 50 53 55 60 65 66 67 70 67 62 65 72 73 70 67 65 65 65 63 58 52 49 51 50 48 47 47 47 47 48 49 49 49 48 48 49 48 48 48 47 45 41 38 38 39 39 37 34 30 27
28 30 32 33 34 35 37 38 39 42 44 44 45 47 49 53 59 64 63 62 66 65 59 61 71 76 73 68 66 67 67 64 60 54 50 51 51 50 49 48 47 47 47 48 49 48 48 49 49 49 49 49 48 46 42 40 42 42 41 38 36 32 29
27 30 32 34 34 35 37 36 36 37 41 44 46 46 48 51 55 62 63 58 57 61 59 57 65 76 77 69 66 69 69 67 65 60 52 49 50 51 50 49 48 47 46 46 46 47 47 48 49 49 49 49 49 47 45 44 44 44 43 41 39 35 31
25 29 32 33 34 35 36 36 35 36 39 42 45 47 50 50 52 58 62 56 50 53 56 55 57 69 76 73 67 67 67 66 67 67 60 52 50 51 51 49 47 46 45 44 43 44 45 47 48 49 49 50 49 47 46 46 46 46 45 43 41 38 35
24 27 29 31 32 33 35 35 34 36 38 41 44 47 49 49 49 54 59 56 49 46 49 51 53 60 71 74 68 65 66 64 63 65 65 59 53 51 50 49 47 46 45 43 43 43 44 46 47 48 49 50 49 46 45 45 46 48 47 44 42 41 39
21 23 24 26 27 29 33 34 33 35 37 39 42 46 48 47 47 51 56 56 52 45 44 47 49 53 63 69 66 64 67 65 59 58 61 61 57 52 50 49 47 46 45 45 44 43 44 45 47 47 48 49 47 45 44 45 47 49 49 46 44 44 43
18 21 22 23 23 24 27 29 30 32 36 38 39 43 46 46 45 49 53 54 52 46 42 44 46 49 57 64 64 63 67 66 60 54 54 55 55 53 50 48 47 46 46 46 45 44 44 45 46 47 47 46 45 44 44 46 48 51 51 49 47 47 47
14 17 20 22 22 21 21 23 25 28 32 36 38 40 43 44 43 45 48 49 49 46 42 43 45 47 53 62 64 64 65 65 60 54 51 51 54 53 49 47 47 46 47 47 46 45 45 46 46 47 47 47 47 46 46 48 50 53 55 53 51 50 50
12 13 18 21 22 20 19 19 20 23 27 31 35 38 41 42 43 43 44 45 46 45 42 42 44 46 52 60 64 65 64 62 59 55 50 50 53 53 50 48 48 48 49 49 48 47 47 48 48 48 48 48 48 48 49 50 51 52 55 56 55 53 51
12 11 14 19 20 20 19 18 18 19 22 27 32 36 39 41 42 42 43 43 44 44 43 42 44 46 51 57 62 65 65 62 59 55 51 51 53 52 51 50 50 49 49 49 49 49 49 50 50 50 49 49 49 48 48 49 49 48 50 54 58 57 53
Wind_Direction
223 241 242 233 228 228 232 234 236 236 233 233 236 238 236 235 240 240 240 247 256 260 260 257 256 256 251 247 241 237 246 252 250 250 248 243 241 240 241 241 234 230 231 231 233 236 236 233 236 244 238 207 186 203 215 216 216 218 220 219 218 218 218
224 230 229 231 227 221 220 226 235 240 238 236 234 235 237 235 235 237 235 235 244 257 265 266 263 260 255 251 246 239 239 239 234 240 245 241 240 242 238 236 235 233 232 230 231 234 237 235 231 238 241 220 186 190 213 218 217 217 219 220 219 219 219
218 228 228 232 233 224 217 215 217 223 232 240 239 234 234 235 235 237 235 232 231 233 251 272 277 263 256 254 250 242 237 235 230 237 250 250 245 242 236 236 240 240 237 233 231 234 238 237 229 232 241 229 193 181 203 217 218 217 218 219 218 217 218
222 228 233 232 234 231 222 217 215 212 212 222 236 240 238 236 235 237 237 236 233 222 224 255 271 268 269 266 253 245 242 242 241 244 254 253 247 242 238 238 241 245 243 235 234 236 238 238 234 232 239 235 208 181 191 213 218 220 222 223 222 220 219
231 233 240 241 240 238 229 224 221 218 216 214 217 229 239 240 236 234 234 236 237 233 223 226 246 267 285 286 260 242 240 244 243 238 243 250 248 244 243 239 237 240 240 237 239 239 235 235 233 233 240 241 226 192 183 205 217 221 225 226 226 225 224
235 236 238 243 244 233 221 224 223 217 219 220 218 219 225 239 240 233 230 229 226 230 234 233 236 249 271 281 265 234 229 239 243 236 236 245 244 241 243 241 236 235 236 236 237 236 235 234 230 230 240 246 243 217 186 192 208 213 221 225 225 227 227
237 237 235 235 237 231 221 221 217 211 218 221 222 226 223 230 243 237 232 229 215 196 204 225 231 227 237 258 259 232 220 224 233 236 237 239 237 239 243 243 239 232 230 232 233 232 233 232 227 224 229 240 248 239 206 188 196 208 214 220 223 225 227
239 239 240 239 241 241 235 229 217 206 215 216 213 222 223 219 231 237 235 232 221 204 194 195 201 204 214 238 252 240 219 219 227 233 237 238 235 236 241 242 236 226 223 233 238 235 233 232 229 225 225 232 241 245 231 201 192 205 211 214 220 223 226
240 238 239 241 243 243 241 237 224 212 217 218 210 212 215 210 210 216 232 239 226 212 204 201 203 204 198 212 250 260 231 227 239 234 232 237 236 233 235 238 236 229 226 233 238 238 236 233 231 227 228 232 236 243 243 223 202 206 212 215 220 223 226
239 236 234 235 236 236 235 235 226 217 220 219 210 210 214 211 203 198 210 231 229 216 210 202 201 216 205 191 213 250 220 210 237 235 225 228 233 233 232 236 240 239 232 228 231 236 237 232 231 229 229 233 235 240 245 238 222 216 217 219 222 225 228
238 234 233 231 231 232 232 233 228 222 221 214 205 206 208 209 207 197 195 203 207 209 215 211 205 208 202 184 188 211 209 199 216 226 222 222 228 233 232 233 238 240 234 227 226 233 235 232 231 231 230 232 234 239 247 247 238 230 228 226 225 230 232
237 234 234 234 234 233 232 234 232 228 228 217 206 204 202 204 208 197 188 192 193 195 211 216 212 214 210 194 195 205 203 200 210 218 217 214 215 222 228 231 234 237 236 230 223 225 230 232 231 230 231 231 232 237 244 246 242 238 237 234 231 234 237
239 234 232 232 235 236 233 233 233 232 232 223 212 208 205 204 206 195 187 191 192 196 208 207 204 215 216 207 210 214 208 211 223 225 216 208 201 205 216 221 222 226 230 227 221 220 224 229 230 231 231 231 231 236 241 243 241 240 240 239 235 235 237
240 236 232 228 230 233 233 232 231 230 228 222 214 211 208 206 205 197 191 195 194 199 209 206 201 213 216 210 217 223 219 221 228 225 214 210 207 210 218 220 219 220 222 223 221 220 222 225 228 230 232 231 232 235 239 241 241 242 242 243 241 238 239
239 236 233 228 227 229 229 228 229 229 228 224 218 214 211 209 208 201 195 196 199 203 208 207 206 214 217 215 220 223 219 219 219 214 210 211 214 218 224 227 226 223 222 222 220 216 216 219 222 225 227 230 232 233 235 237 239 241 241 242 241 238 239
241 236 233 229 227 229 228 227 228 228 228 228 223 217 213 210 209 205 198 197 203 207 208 205 206 212 218 220 223 223 220 214 210 206 207 209 213 218 222 227 229 226 225 226 224 220 216 216 218 221 223 226 228 230 232 234 237 239 239 239 238 234 234
246 239 233 228 227 229 228 226 228 228 227 228 225 220 216 212 209 204 198 199 207 210 209 207 207 210 214 217 218 219 218 214 210 208 209 210 212 214 217 221 223 222 221 223 225 225 222 218 217 219 222 225 225 227 230 234 236 238 238 237 235 231 230
250 244 237 231 228 228 225 223 225 226 225 225 224 221 218 214 212 206 198 201 210 211 208 208 208 208 210 211 213 213 214 215 213 211 211 213 213 213 215 218 219 219 220 221 221 221 222 223 223 222 223 226 226 225 227 231 232 234 236 235 232 230 228
249 244 239 235 232 228 224 222 223 224 224 224 223 222 218 215 214 209 202 203 210 211 208 208 210 209 207 208 209 209 209 211 212 212 213 215 216 214 215 218 219 220 222 223 223 221 221 224 227 228 229 231 231 228 226 229 231 232 234 235 233 232 229
249 245 239 236 235 229 224 223 224 223 224 224 224 222 218 216 215 212 206 204 209 212 209 208 209 209 208 207 207 207 207 208 210 212 213 214 216 216 216 219 220 221 223 224 224 224 224 224 225 229 231 233 234 232 230 231 233 235 236 235 233 233 232
246 246 241 236 234 229 223 223 224 223 223 223 223 220 217 216 217 214 209 207 208 211 210 207 207 207 208 209 208 206 208 211 211 211 212 212 215 216 216 220 222 223 225 226 224 225 226 227 227 229 231 232 232 233 234 234 236 239 240 239 235 235 237
240 243 242 235 231 227 223 223 223 222 223 224 223 222 219 217 216 214 212 212 212 213 213 210 208 206 206 210 210 206 208 211 211 211 211 211 213 215 215 219 223 224 225 226 225 225 227 228 227 228 231 233 231 230 231 232 235 238 241 242 241 238 239
235 239 241 235 231 227 224 223 222 221 222 223 223 224 222 218 216 215 215 215 215 215 214 212 211 209 208 210 209 205 206 208 208 209 210 209 211 213 214 217 221 224 225 225 225 225 226 229 230 228 228 230 231 231 230 230 232 234 236 242 244 240 238
232 237 240 237 235 231 226 223 222 221 220 221 222 224 224 220 216 216 217 216 215 214 214 214 214 213 211 210 208 204 205 206 205 207 209 208 209 212 214 216 219 223 225 225 225 224 225 227 231 232 231 230 231 233 233 233 235 236 237 241 243 239 235
228 234 237 238 238 234 228 225 224 221 220 220 220 223 224 220 216 217 218 216 214 215 215 215 216 216 214 212 209 204 202 201 201 204 207 207 209 212 214 216 219 221 223 224 223 224 224 225 228 231 233 234 234 233 233 235 237 239 240 242 240 236 236
226 230 233 235 237 235 229 228 228 223 221 221 220 220 223 221 215 215 217 217 215 216 216 215 215 217 216 213 209 207 204 199 199 203 208 210 212 213 215 217 218 220 222 222 222 222 223 225 227 228 231 234 235 235 235 237 239 242 244 244 240 236 236
225 229 232 233 236 235 229 227 229 227 225 224 220 219 222 221 216 214 216 217 217 217 217 216 215 216 216 213 210 211 213 212 211 212 214 217 218 218 218 218 218 219 221 222 222 221 222 224 227 228 229 232 234 236 237 239 241 243 245 246 244 240 236
222 227 231 234 236 235 229 226 228 229 228 227 224 221 223 223 218 215 216 218 218 217 217 217 215 214 215 214 212 214 218 220 220 218 215 216 219 219 219 219 218 218 220 221 222 222 222 224 226 228 229 231 233 235 237 238 240 243 245 247 247 244 238
225 227 231 235 236 235 231 228 228 229 229 227 226 224 223 223 220 216 216 219 220 218 217 218 217 215 214 214 213 214 217 219 218 214 210 211 214 217 219 220 220 219 219 221 222 222 222 223 226 228 229 230 232 235 236 237 239 243 245 247 249 248 241
232 230 232 236 238 237 236 234 231 231 229 226 226 225 222 222 220 217 217 220 222 221 220 220 218 216 214 213 213 214 217 219 219 215 211 211 214 216 219 220 221 221 220 221 222 223 222 224 226 229 230 231 232 233 234 236 239 242 244 245 246 247 242
235 235 235 237 237 237 237 236 232 231 228 224 224 223 220 219 218 216 217 220 222 221 221 222 220 217 214 212 213 215 218 220 221 220 217 214 213 216 219 220 222 224 223 221 221 222 223 225 227 229 231 232 233 232 232 235 238 241 242 242 243 243 240
236 238 239 239 240 240 240 238 233 231 227 223 222 221 218 217 217 214 215 216 217 217 218 220 221 218 214 212 214 216 218 219 222 223 221 216 214 216 218 220 223 225 225 224 221 220 222 224 227 229 231 233 234 234 233 234 237 239 240 239 239 240 239
241 241 241 241 243 244 244 242 236 230 225 222 220 218 217 216 216 214 214 216 217 216 216 218 220 219 214 211 212 214 217 219 220 221 219 217 215 215 217 219 222 224 226 226 224 222 221 223 226 228 230 233 234 234 233 234 235 237 239 238 236 237 238
250 247 247 246 245 244 245 244 237 228 222 219 217 216 216 217 215 214 215 218 220 220 216 216 218 217 212 209 208 210 215 218 218 218 216 214 214 214 215 217 220 223 226 228 227 224 223 224 226 228 230 232 232 232 232 232 232 233 234 233 233 234 235
267 257 254 254 252 247 244 243 237 228 220 216 214 214 216 217 216 215 217 218 221 221 218 215 215 214 209 206 205 207 212 215 216 215 214 212 210 212 213 214 217 221 225 228 228 226 224 224 226 228 230 231 231 229 229 230 231 231 231 228 226 229 232
287 270 260 260 259 253 247 243 239 231 223 217 214 214 215 216 216 216 216 217 220 222 220 216 214 210 205 203 203 206 210 213 213 213 212 208 207 210 211 213 215 218 221 224 226 224 223 223 225 227 229 231 231 230 229 228 229 231 232 228 222 222 227
297 287 272 265 262 257 249 244 238 230 223 219 217 216 216 215 215 216 216 215 217 219 219 217 214 209 203 201 202 205 209 211 212 212 210 206 206 208 210 213 216 218 219 220 221 220 219 220 222 224 227 230 232 232 232 231 230 231 234 231 224 218 219
Height
5789 5790 5793 5795 5799 5803 5807 5809 5810 5813 5819 5822 5823 5825 5828 5831 5831 5834 5838 5840 5841 5843 5845 5847 5849 5852 5857 5860 5864 5868 5868 5870 5868 5864 5869 5876 5877 5879 5883 5885 5887 5890 5892 5893 5895 5897 5899 5901 5903 5905 5905 5902 5900 5901 5903 5906 5909 5912 5915 5918 5920 5923 5925
5788 5787 5787 5788 5792 5797 5801 5805 5809 5813 5816 5818 5818 5820 5823 5826 5826 5829 5834 5839 5842 5844 5843 5844 5846 5848 5851 5854 5859 5866 5868 5868 5866 5863 5866 5873 5876 5878 5883 5885 5886 5888 5890 5891 5893 5895 5897 5899 5901 5903 5905 5902 5899 5899 5901 5904 5907 5910 5913 5916 5918 5921 5923
5782 5781 5782 5784 5787 5790 5795 5800 5806 5810 5812 5814 5815 5816 5818 5821 5823 5826 5831 5835 5840 5844 5846 5845 5844 5843 5846 5851 5854 5860 5864 5864 5863 5864 5865 5869 5872 5875 5879 5883 5884 5885 5887 5889 5891 5893 5896 5897 5899 5901 5903 5902 5899 5897 5900 5903 5906 5908 5911 5913 5916 5918 5921
5776 5775 5777 5780 5784 5788 5793 5797 5800 5802 5805 5808 5811 5812 5814 5817 5820 5824 5828 5832 5835 5841 5845 5848 5846 5842 5843 5848 5850 5853 5858 5857 5861 5867 5866 5864 5867 5870 5874 5878 5881 5881 5883 5886 5889 5891 5894 5895 5897 5899 5901 5902 5899 5896 5898 5901 5904 5907 5909 5912 5915 5917 5920
5770 5772 5775 5777 5782 5787 5793 5796 5797 5799 5800 5803 5806 5809 5811 5813 5816 5821 5825 5829 5833 5838 5843 5847 5848 5844 5841 5842 5844 5847 5851 5852 5857 5865 5866 5863 5864 5867 5870 5873 5876 5878 5881 5884 5887 5890 5892 5893 5894 5896 5900 5902 5900 5896 5896 5900 5903 5905 5908 5911 5914 5916 5919
5767 5771 5773 5775 5778 5782 5788 5791 5793 5796 5799 5802 5804 5806 5809 5811 5812 5816 5821 5825 5831 5838 5841 5843 5845 5846 5842 5839 5839 5842 5846 5850 5854 5860 5863 5862 5863 5864 5866 5869 5873 5877 5880 5882 5885 5888 5890 5891 5892 5894 5897 5901 5902 5898 5895 5898 5901 5904 5907 5909 5912 5914 5917
5763 5765 5768 5769 5771 5773 5777 5782 5788 5794 5797 5800 5803 5805 5809 5812 5811 5813 5817 5820 5827 5835 5838 5838 5841 5844 5845 5842 5838 5838 5842 5847 5851 5855 5858 5860 5861 5862 5863 5865 5870 5876 5878 5880 5882 5885 5887 5888 5890 5891 5894 5899 5902 5900 5896 5896 5899 5903 5905 5907 5910 5912 5914
5757 5761 5764 5766 5767 5770 5773 5776 5781 5787 5790 5793 5796 5798 5803 5806 5808 5812 5814 5814 5821 5830 5833 5834 5836 5839 5843 5844 5840 5837 5839 5843 5846 5850 5853 5856 5858 5860 5860 5861 5866 5873 5877 5877 5879 5881 5883 5885 5887 5889 5891 5895 5899 5899 5897 5896 5898 5901 5904 5906 5908 5910 5912
5750 5756 5761 5762 5765 5767 5769 5771 5776 5781 5785 5788 5789 5791 5794 5796 5801 5808 5812 5812 5818 5826 5830 5831 5834 5835 5838 5841 5840 5836 5838 5841 5843 5846 5849 5851 5854 5856 5858 5858 5862 5868 5874 5875 5876 5878 5880 5883 5886 5888 5890 5893 5895 5897 5898 5897 5896 5899 5903 5905 5907 5908 5910
5744 5751 5754 5754 5756 5758 5759 5762 5768 5774 5777 5780 5783 5786 5790 5793 5796 5800 5805 5810 5816 5822 5826 5828 5831 5833 5834 5837 5838 5836 5837 5840 5841 5842 5844 5847 5850 5852 5855 5856 5858 5863 5869 5873 5874 5875 5878 5881 5883 5886 5888 5889 5892 5894 5897 5898 5896 5897 5901 5904 5905 5907 5908
5737 5743 5744 5745 5746 5748 5751 5755 5759 5762 5765 5769 5773 5777 5782 5788 5790 5792 5798 5805 5812 5817 5819 5820 5823 5826 5829 5833 5835 5834 5833 5835 5836 5836 5838 5844 5848 5849 5852 5854 5855 5858 5863 5869 5872 5873 5875 5878 5880 5882 5884 5886 5889 5891 5894 5895 5895 5896 5900 5902 5904 5906 5907
5729 5734 5737 5740 5741 5742 5746 5749 5752 5755 5759 5763 5767 5769 5772 5776 5779 5784 5792 5798 5805 5811 5812 5811 5815 5818 5821 5824 5824 5824 5825 5826 5828 5831 5834 5840 5846 5848 5850 5852 5853 5854 5857 5863 5868 5870 5872 5874 5876 5878 5880 5882 5886 5888 5890 5891 5892 5894 5898 5901 5903 5904 5906
5719 5725 5729 5734 5734 5735 5739 5743 5747 5751 5755 5761 5764 5765 5768 5769 5771 5779 5787 5791 5797 5804 5805 5805 5809 5809 5810 5813 5811 5813 5819 5822 5826 5831 5832 5835 5839 5841 5843 5845 5848 5850 5852 5856 5862 5865 5867 5870 5872 5874 5877 5879 5882 5885 5887 5888 5890 5893 5896 5899 5901 5903 5904
5709 5714 5719 5724 5726 5727 5732 5736 5739 5743 5747 5752 5756 5758 5762 5765 5769 5777 5784 5786 5790 5794 5795 5799 5802 5801 5803 5805 5805 5809 5816 5819 5823 5828 5829 5831 5833 5833 5834 5838 5842 5846 5848 5852 5857 5861 5864 5866 5868 5870 5873 5875 5879 5881 5884 5886 5888 5891 5894 5897 5899 5901 5903
5699 5704 5709 5715 5718 5719 5722 5727 5731 5736 5741 5745 5749 5753 5758 5762 5768 5774 5779 5781 5784 5785 5787 5791 5795 5795 5799 5801 5803 5809 5815 5817 5820 5823 5825 5828 5830 5831 5833 5836 5840 5843 5845 5849 5853 5855 5857 5860 5862 5865 5868 5871 5874 5877 5880 5883 5886 5889 5892 5894 5897 5899 5901
5692 5697 5702 5707 5711 5712 5714 5720 5726 5731 5737 5740 5745 5751 5756 5761 5767 5772 5774 5777 5779 5778 5780 5784 5786 5789 5793 5796 5801 5807 5811 5814 5817 5819 5821 5823 5826 5829 5831 5834 5837 5840 5843 5847 5850 5852 5853 5853 5855 5858 5862 5866 5870 5873 5877 5880 5883 5886 5889 5892 5894 5897 5898
5687 5692 5695 5698 5702 5702 5705 5714 5722 5727 5732 5735 5739 5745 5751 5756 5761 5764 5768 5771 5770 5770 5774 5778 5779 5782 5786 5790 5795 5800 5805 5809 5812 5814 5816 5818 5820 5824 5828 5830 5834 5836 5839 5843 5847 5850 5853 5854 5855 5858 5860 5863 5866 5870 5873 5877 5879 5882 5885 5889 5892 5894 5896
5684 5687 5689 5691 5692 5691 5698 5710 5716 5718 5722 5725 5729 5735 5742 5749 5755 5758 5761 5763 5761 5763 5768 5771 5773 5776 5780 5784 5789 5793 5798 5803 5807 5809 5812 5814 5816 5819 5822 5826 5830 5832 5834 5838 5841 5845 5850 5853 5856 5857 5858 5860 5862 5866 5869 5872 5875 5878 5881 5885 5888 5891 5894
5680 5683 5684 5684 5682 5685 5696 5704 5706 5708 5713 5716 5720 5727 5734 5742 5747 5749 5751 5753 5756 5760 5762 5763 5766 5770 5774 5777 5782 5788 5792 5796 5800 5805 5807 5809 5812 5815 5818 5822 5825 5828 5831 5834 5838 5841 5845 5848 5851 5853 5855 5858 5860 5863 5865 5868 5871 5874 5877 5881 5885 5888 5891
5676 5677 5678 5678 5679 5685 5694 5697 5697 5702 5707 5710 5715 5723 5729 5732 5732 5734 5739 5742 5746 5748 5749 5751 5757 5764 5769 5772 5777 5784 5787 5790 5795 5799 5803 5806 5808 5811 5815 5818 5821 5824 5827 5831 5835 5839 5841 5844 5847 5849 5852 5856 5859 5861 5864 5867 5870 5872 5875 5878 5882 5885 5888
5672 5673 5674 5675 5678 5683 5687 5687 5689 5694 5698 5702 5709 5715 5719 5719 5720 5727 5734 5736 5735 5734 5736 5745 5756 5763 5767 5770 5774 5779 5782 5786 5790 5794 5798 5802 5804 5807 5811 5814 5817 5821 5825 5828 5832 5835 5838 5841 5844 5848 5851 5854 5857 5860 5864 5868 5870 5871 5873 5876 5880 5883 5885
5669 5670 5670 5671 5674 5677 5679 5679 5682 5688 5693 5697 5703 5707 5709 5710 5715 5722 5727 5729 5732 5734 5739 5750 5758 5762 5764 5764 5767 5773 5778 5781 5787 5790 5794 5798 5801 5804 5807 5810 5814 5818 5821 5825 5829 5832 5834 5836 5840 5845 5850 5853 5856 5859 5862 5866 5868 5870 5872 5875 5878 5880 5882
5665 5666 5666 5668 5670 5672 5674 5676 5679 5683 5687 5691 5695 5699 5701 5705 5710 5716 5719 5724 5730 5736 5743 5750 5754 5755 5755 5755 5761 5770 5775 5778 5783 5787 5789 5794 5797 5800 5804 5807 5810 5814 5817 5821 5825 5828 5831 5833 5835 5840 5845 5849 5853 5856 5858 5861 5864 5867 5869 5872 5876 5878 5880
5661 5663 5663 5665 5667 5667 5669 5672 5674 5677 5680 5684 5688 5691 5694 5701 5707 5711 5714 5719 5726 5731 5738 5743 5745 5746 5748 5752 5760 5768 5772 5775 5780 5783 5786 5790 5793 5797 5800 5803 5806 5810 5813 5818 5822 5825 5828 5831 5833 5836 5839 5842 5847 5851 5854 5857 5860 5864 5867 5870 5873 5875 5877
5658 5659 5661 5663 5662 5662 5664 5667 5668 5671 5674 5677 5680 5684 5689 5696 5702 5705 5709 5714 5719 5724 5730 5735 5737 5741 5746 5752 5759 5765 5768 5771 5776 5780 5783 5786 5789 5793 5796 5799 5802 5806 5809 5814 5818 5821 5824 5828 5830 5833 5836 5839 5842 5846 5850 5853 5857 5861 5865 5867 5869 5871 5873
5655 5656 5658 5659 5658 5657 5660 5662 5664 5668 5670 5671 5675 5680 5684 5688 5693 5698 5703 5707 5711 5717 5723 5728 5732 5738 5744 5750 5756 5761 5764 5768 5772 5776 5779 5782 5785 5789 5792 5795 5798 5801 5805 5809 5813 5817 5821 5824 5827 5830 5833 5836 5840 5843 5846 5850 5854 5858 5860 5862 5864 5867 5870
5652 5654 5654 5654 5653 5654 5657 5659 5661 5664 5665 5666 5670 5674 5676 5680 5685 5690 5695 5698 5702 5709 5717 5721 5725 5731 5739 5745 5751 5756 5759 5763 5767 5772 5776 5779 5782 5785 5788 5791 5794 5797 5801 5805 5809 5813 5817 5820 5823 5826 5829 5833 5836 5839 5843 5848 5852 5853 5854 5857 5860 5863 5866
5649 5650 5650 5650 5651 5652 5654 5656 5657 5659 5661 5662 5665 5668 5671 5676 5680 5685 5689 5694 5698 5704 5710 5714 5718 5724 5731 5739 5745 5749 5752 5757 5763 5767 5772 5776 5778 5781 5784 5787 5790 5793 5797 5801 5805 5809 5813 5817 5819 5822 5826 5829 5832 5836 5841 5846 5848 5848 5849 5852 5855 5859 5862
5646 5647 5647 5647 5647 5648 5649 5651 5653 5654 5656 5658 5661 5664 5669 5672 5675 5680 5685 5690 5694 5700 5705 5708 5712 5717 5724 5732 5739 5742 5746 5752 5758 5763 5768 5772 5774 5777 5780 5783 5785 5789 5793 5797 5801 5805 5809 5813 5815 5818 5822 5826 5829 5833 5838 5842 5843 5843 5846 5849 5851 5855 5859
5644 5644 5644 5643 5644 5645 5646 5648 5650 5651 5653 5655 5657 5661 5665 5667 5671 5676 5681 5686 5690 5695 5700 5704 5706 5711 5718 5726 5733 5736 5740 5746 5752 5757 5763 5768 5770 5773 5775 5778 5781 5785 5789 5793 5797 5801 5805 5809 5811 5815 5819 5822 5825 5830 5835 5837 5838 5839 5842 5845 5848 5851 5854
5641 5641 5641 5641 5642 5643 5643 5644 5646 5648 5649 5651 5654 5657 5660 5664 5668 5672 5677 5682 5687 5691 5695 5699 5702 5706 5713 5720 5727 5731 5736 5741 5746 5752 5758 5763 5767 5769 5771 5774 5777 5781 5785 5789 5794 5798 5801 5804 5807 5810 5814 5817 5821 5826 5830 5832 5834 5835 5837 5841 5844 5846 5849
5638 5638 5638 5639 5640 5640 5640 5641 5643 5644 5646 5648 5650 5653 5657 5661 5665 5669 5674 5679 5683 5687 5691 5694 5698 5702 5708 5714 5721 5726 5730 5736 5741 5746 5752 5758 5763 5765 5768 5771 5774 5777 5781 5785 5790 5794 5797 5800 5802 5806 5809 5812 5816 5821 5825 5828 5829 5830 5832 5836 5840 5842 5844
5635 5635 5635 5636 5637 5637 5637 5638 5639 5641 5643 5645 5647 5650 5654 5658 5661 5666 5670 5675 5679 5682 5686 5690 5694 5698 5704 5710 5716 5721 5726 5731 5737 5742 5747 5753 5758 5762 5765 5768 5771 5774 5777 5781 5785 5790 5793 5795 5798 5801 5804 5807 5811 5816 5819 5822 5824 5825 5827 5831 5834 5836 5837
5632 5632 5632 5632 5633 5633 5634 5634 5636 5638 5640 5642 5644 5647 5651 5654 5658 5662 5667 5671 5675 5678 5682 5686 5690 5695 5700 5705 5711 5716 5720 5726 5733 5738 5743 5748 5753 5758 5762 5765 5768 5771 5773 5777 5781 5785 5789 5792 5794 5797 5800 5803 5807 5810 5813 5815 5816 5817 5819 5823 5827 5829 5830
5630 5629 5629 5628 5629 5629 5630 5631 5632 5634 5636 5638 5641 5644 5647 5651 5655 5659 5663 5667 5671 5674 5678 5682 5686 5690 5695 5700 5705 5710 5714 5721 5728 5734 5739 5744 5749 5753 5758 5762 5765 5768 5770 5773 5776 5781 5785 5787 5790 5793 5796 5798 5800 5803 5805 5807 5808 5809 5810 5813 5817 5821 5825
5627 5626 5626 5625 5625 5626 5627 5628 5629 5631 5633 5636 5638 5641 5644 5647 5651 5655 5659 5663 5666 5670 5674 5678 5681 5686 5690 5695 5700 5705 5710 5716 5723 5730 5735 5740 5744 5749 5753 5757 5759 5762 5765 5768 5771 5776 5780 5783 5785 5789 5791 5793 5794 5797 5798 5799 5801 5803 5806 5809 5810 5813 5818
5625 5624 5623 5622 5622 5623 5624 5625 5626 5628 5630 5633 5635 5637 5640 5643 5647 5651 5655 5659 5662 5666 5670 5674 5677 5682 5686 5691 5696 5701 5706 5712 5719 5725 5730 5735 5739 5744 5748 5751 5754 5757 5760 5762 5766 5770 5774 5777 5780 5783 5786 5787 5790 5793 5796 5797 5797 5799 5803 5809 5811 5809 5809